STARLINK-1502, 45764

Orbit data source: Space-Track

STARLINK-1502, 45764 is a payload satellite owned by SpaceX/Seattle (US) in LEO that was launched on Sat, 13 Jun 2020 UTC via an FALCON 9 launch vehicle from the Air Force Eastern Test Range (AFETR). Payload-class satellites include a variety of spacecraft equipped with specific instruments for various scientific and technological missions. These include communications satellites like Starlink; space stations such as the ISS; scientific satellites like the Hubble; Earth observation satellites from companies like Planet Labs, Umbra, and HawkEye 360; GPS; miniature CubeSats for education and research; and military/defense satellites.

Loading next visibility...
Identifier
45764, 2020-038AL
Orbit
LEO
Country
Flag of USUS
Related business
Manufacturer
SpaceX/Seattle
Mission
Operational Commercial Communications
Bus & Motor
STARLINK, Unknown motor
Mass
260 kg wet, ~248 kg dry
Launch date (UTC)
2020-06-13 (5 years ago)
Launch vehicle
FALCON 9
Launch site
Air Force Eastern Test Range (AFETR)
Object type
Payload
Rocket body
Debris
Shape & HBR
Box + 1 Pan, 10.1 m
Radar Cross Section
13.562 m², Large (>1 m²)

Expand to show TLE details & history
Last TLE update: 1 day ago

TLE from 1 day ago
0 STARLINK-1502
1 45764U 20038AL  25298.73782868  .00000877  00000-0  77779-4 0  9997
2 45764  53.0552 102.4378 0001236  85.4298 274.6832 15.06400526296144
Epoch: 2025-10-25T17:42Z
TLE epoch observation values (Epoch: 2025-10-25T17:42:28.397Z)
Latitude
-0.00006°
Longitude
162.45536°
Altitude
548.019 km
Speed
7.589 km/s
True Right ascension
06h 49m 45s
True Declination
0° 00' 00"
Sunlit
Object was in daylight at epoch
Visualization orbit readout
Latitude
Unknown
Longitude
Unknown
Altitude
Unknown
Speed
Unknown
Apparent Right ascension
Unknown
Apparent Declination
Unknown
Sunlit
N/A
Visualization observer readout
Local Sidereal Time
12:42:16
Azimuth
Unknown
Elevation
Unknown
Doppler factor
Unknown
Orbital elements
Apogee altitude
548.337 km
Perigee altitude
546.625 km
Semi-major axis
6,925.618 km
Eccentricity
0.00012
Inclination
53.0552°
RAAN
102.4378°
Arg. of periapsis
85.4298°
True anomaly
274.66908°
Mean anomaly
274.6832°
Eccentric anomaly
274.67614°
Mean motion
3.76578 °/min
Orbital period
95.6 mins
BSTAR
0.000077779
Loading maneuver chart data...
Computing Atmospheric mass density...

Documentation

Showing up to 5 results
|